Regional Weather Roundup
Issued by NWS

Home | Current Version | Previous Version | Graphics & Text | Print | Product List | Glossary On
Versions: 1 2 3 4 5 6 7 8 9 10 11 12 13 14 15 16 17 18 19 20 21 22 23 24 25 26 27 28 29 30 31 32 33 34 35 36 37 38 39 40 41 42 43 44 45 46 47 48 49 50
218
ASUS45 KBOI 100010
RWRID

IDAHO REGIONAL WEATHER ROUNDUP
NATIONAL WEATHER SERVICE BOISE ID
500 PM MST TUE FEB 09 2016

NOTE: "FAIR" INDICATES FEW OR NO CLOUDS BELOW 12000 FEET
WITH NO SIGNIFICANT WEATHER AND/OR OBSTRUCTIONS TO VISIBILITY

IDZ012-014-100100-
SOUTHWEST IDAHO


CITY           SKY/WX    TMP DP  RH WIND       PRES   REMARKS
BOISE          SUNNY     44  32  62 SW3       30.46F
CALDWELL       MOSUNNY   37  31  78 W6        30.49F WCI  32
MOUNTAIN HOME  SUNNY     42  32  68 S8        30.47F
$$

IDZ016-017-100100-
SOUTHCENTRAL IDAHO


CITY           SKY/WX    TMP DP  RH WIND       PRES   REMARKS
BURLEY         CLEAR     35  29  78 NE10      30.44F WCI  27
JEROME         CLEAR     33  28  81 NE10      30.46F WCI  25
TWIN FALLS     PTCLDY    35  32  88 E10       30.45S WCI  27
$$

IDZ019>023-100100-
SOUTHEAST IDAHO


CITY           SKY/WX    TMP DP  RH WIND       PRES   REMARKS
IDAHO FALLS    CLOUDY    25  22  88 N6        30.50F WCI  18
POCATELLO      CLOUDY    31  24  75 NE9       30.50S WCI  23
REXBURG        CLOUDY    29  22  75 E6        30.49F WCI  23
$$

IDZ006-010-011-018-031-032-100100-
CENTRAL IDAHO MOUNTAINS


CITY           SKY/WX    TMP DP  RH WIND       PRES   REMARKS
MCCALL         CLEAR     38  29  70 CALM      30.38F
HAILEY         CLEAR     36  27  69 CALM      30.46S
STANLEY          N/A     36  23  59 CALM      30.43S
SALMON         CLOUDY    27  18  69 CALM      30.48F
CHALLIS        CLEAR     26  18  71 CALM      30.45F
$$

IDZ002-004-006-007-026-100100-
NORTHERN IDAHO


CITY           SKY/WX    TMP DP  RH WIND       PRES   REMARKS
LEWISTON       CLEAR     57  35  43 S13       30.25F
LOWELL           N/A     42  37  82 N3        30.30R
COEUR D`ALENE  CLEAR     48  36  61 NE10      30.25F
MULLAN PASS    CLEAR     46  30  53 S7        30.31F
$$




USA.gov is the U.S. government's official web portal to all federal, state and local government web resources and services.